FOF315 PANC-UHPP

Flight info

Callsign FOF315
Flight time 3h 59m
Altitude 36000
Route SQA DCT LESAD DCT MARCC G583 BESAT/K0856F360 G583 KULOD KULOD5N
Aircraft B738/M-SDE2E3FGHIRVWY/LB1

Departure

Time 2026-04-24 13:08
Airport Ted Stevens Anchorage International Airport (PANC)

Arrival

Time 2026-04-24 17:07
Airport Yelizovo Airport (UHPP)
Time Latitude Longitude Altitude Speed Heading
2026-04-24 12:29 61.17576 -149.98495 109 ft 0 kts 105°
2026-04-24 12:54 61.17577 -149.98510 108 ft 3 kts 105°
2026-04-24 12:54 61.17581 -149.98538 107 ft 3 kts 104°
2026-04-24 12:54 61.17588 -149.98592 105 ft 3 kts 104°
2026-04-24 12:54 61.17591 -149.98618 103 ft 3 kts 107°
2026-04-24 12:55 61.17598 -149.98656 103 ft 3 kts 122°
2026-04-24 12:55 61.17610 -149.98688 102 ft 3 kts 141°
2026-04-24 12:55 61.17626 -149.98708 103 ft 2 kts 156°
2026-04-24 12:55 61.17629 -149.98711 103 ft 1 kts 158°
2026-04-24 13:00 61.17628 -149.98710 103 ft 1 kts 157°
2026-04-24 13:01 61.17614 -149.98698 104 ft 4 kts 157°
2026-04-24 13:01 61.17580 -149.98669 105 ft 7 kts 160°
2026-04-24 13:01 61.17527 -149.98631 105 ft 9 kts 160°
2026-04-24 13:01 61.17462 -149.98583 107 ft 11 kts 160°
2026-04-24 13:02 61.17387 -149.98602 109 ft 13 kts 211°
2026-04-24 13:02 61.17304 -149.98714 109 ft 16 kts 213°
2026-04-24 13:02 61.17211 -149.98861 112 ft 18 kts 228°
2026-04-24 13:02 61.17133 -149.99081 115 ft 19 kts 251°
2026-04-24 13:03 61.17125 -149.99367 120 ft 21 kts 270°
2026-04-24 13:03 61.17124 -149.99663 126 ft 20 kts 269°
2026-04-24 13:03 61.17124 -149.99958 131 ft 21 kts 270°
2026-04-24 13:03 61.17124 -150.00265 136 ft 22 kts 270°
2026-04-24 13:04 61.17124 -150.00597 136 ft 23 kts 270°
2026-04-24 13:04 61.17124 -150.00927 136 ft 23 kts 270°
2026-04-24 13:04 61.17123 -150.01261 135 ft 24 kts 269°
2026-04-24 13:04 61.17123 -150.01599 134 ft 24 kts 270°
2026-04-24 13:05 61.17123 -150.01933 134 ft 23 kts 270°
2026-04-24 13:05 61.17122 -150.02255 134 ft 22 kts 270°
2026-04-24 13:05 61.17122 -150.02567 134 ft 21 kts 269°
2026-04-24 13:05 61.17122 -150.02871 134 ft 21 kts 270°
2026-04-24 13:06 61.17122 -150.03139 134 ft 15 kts 269°
2026-04-24 13:06 61.17075 -150.03321 131 ft 15 kts 225°
2026-04-24 13:06 61.17002 -150.03468 129 ft 11 kts 216°
2026-04-24 13:06 61.16930 -150.03496 132 ft 10 kts 181°
2026-04-24 13:07 61.16860 -150.03473 134 ft 10 kts 155°
2026-04-24 13:07 61.16808 -150.03379 137 ft 10 kts 128°
2026-04-24 13:07 61.16782 -150.03249 138 ft 11 kts 93°
2026-04-24 13:07 61.16781 -150.02734 138 ft 69 kts 90°
2026-04-24 13:08 61.16784 -150.01291 135 ft 129 kts 90°
2026-04-24 13:08 61.16760 -149.99158 409 ft 155 kts 94°
2026-04-24 13:08 61.16775 -149.96830 955 ft 170 kts 91°
2026-04-24 13:09 61.15588 -149.92607 2177 ft 189 kts 157°
2026-04-24 13:09 61.14232 -149.92343 2540 ft 210 kts 188°
2026-04-24 13:09 61.12882 -149.93826 3062 ft 227 kts 221°
2026-04-24 13:09 61.12033 -149.96756 3475 ft 256 kts 249°
2026-04-24 13:10 61.11884 -150.00480 4069 ft 273 kts 272°
2026-04-24 13:10 61.12148 -150.04406 4843 ft 276 kts 273°
2026-04-24 13:10 61.12428 -150.08315 5629 ft 279 kts 272°
2026-04-24 13:10 61.12723 -150.12393 6187 ft 291 kts 271°
2026-04-24 13:11 61.13027 -150.16562 6906 ft 294 kts 271°
2026-04-24 13:11 61.13334 -150.20709 7839 ft 288 kts 271°
2026-04-24 13:11 61.13635 -150.24788 8747 ft 286 kts 271°
2026-04-24 13:11 61.13931 -150.28847 9594 ft 284 kts 271°
2026-04-24 13:12 61.14223 -150.32892 10345 ft 287 kts 271°
2026-04-24 13:12 61.14518 -150.37112 10577 ft 307 kts 271°
2026-04-24 13:12 61.14830 -150.41636 10760 ft 328 kts 271°
2026-04-24 13:12 61.15164 -150.46477 10945 ft 348 kts 272°
2026-04-24 13:13 61.15516 -150.51507 11413 ft 356 kts 272°
2026-04-24 13:13 61.15877 -150.56602 12093 ft 359 kts 272°
2026-04-24 13:13 61.16245 -150.61799 12815 ft 361 kts 272°
2026-04-24 13:13 61.16607 -150.66964 13494 ft 364 kts 272°
2026-04-24 13:14 61.16968 -150.72170 14101 ft 367 kts 272°
2026-04-24 13:14 61.17330 -150.77424 14707 ft 370 kts 272°
2026-04-24 13:14 61.17691 -150.82709 15320 ft 372 kts 272°
2026-04-24 13:14 61.18053 -150.88037 15933 ft 374 kts 272°
2026-04-24 13:15 61.18413 -150.93386 16521 ft 376 kts 272°
2026-04-24 13:15 61.18773 -150.98776 17125 ft 379 kts 272°
2026-04-24 13:15 61.19133 -151.04190 17724 ft 381 kts 271°
2026-04-24 13:15 61.19493 -151.09653 18317 ft 383 kts 271°
2026-04-24 13:16 61.19852 -151.15137 18816 ft 385 kts 271°
2026-04-24 13:16 61.20212 -151.20663 19305 ft 387 kts 271°
2026-04-24 13:16 61.20572 -151.26220 19797 ft 390 kts 270°
2026-04-24 13:16 61.20930 -151.31796 20289 ft 392 kts 270°
2026-04-24 13:17 61.21288 -151.37411 20764 ft 394 kts 270°
2026-04-24 13:17 61.21647 -151.43067 21231 ft 396 kts 269°
2026-04-24 13:17 61.22004 -151.48747 21694 ft 398 kts 269°
2026-04-24 13:17 61.22361 -151.54455 22153 ft 401 kts 269°
2026-04-24 13:18 61.22719 -151.60217 22606 ft 403 kts 269°
2026-04-24 13:18 61.23074 -151.65995 23043 ft 405 kts 268°
2026-04-24 13:18 61.23430 -151.71801 23475 ft 407 kts 268°
2026-04-24 13:18 61.23786 -151.77660 23840 ft 409 kts 268°
2026-04-24 13:19 61.24142 -151.83548 24191 ft 411 kts 268°
2026-04-24 13:19 61.24495 -151.89451 24534 ft 413 kts 268°
2026-04-24 13:19 61.24844 -151.95318 24870 ft 416 kts 268°
2026-04-24 13:19 61.25198 -152.01303 25209 ft 418 kts 268°
2026-04-24 13:20 61.25550 -152.07311 25532 ft 420 kts 268°
2026-04-24 13:20 61.25901 -152.13348 25807 ft 422 kts 268°
2026-04-24 13:20 61.26249 -152.19432 26130 ft 425 kts 268°
2026-04-24 13:20 61.26598 -152.25536 26445 ft 427 kts 268°
2026-04-24 13:21 61.26950 -152.31673 26766 ft 429 kts 268°
2026-04-24 13:21 61.27298 -152.37847 27045 ft 432 kts 268°
2026-04-24 13:21 61.27644 -152.44049 27359 ft 433 kts 268°
2026-04-24 13:21 61.27988 -152.50297 27656 ft 436 kts 268°
2026-04-24 13:22 61.28332 -152.56575 27919 ft 438 kts 268°
2026-04-24 13:22 61.28673 -152.62877 28142 ft 440 kts 268°
2026-04-24 13:22 61.29015 -152.69207 28448 ft 441 kts 268°
2026-04-24 13:22 61.29355 -152.75560 28727 ft 442 kts 268°
2026-04-24 13:23 61.29695 -152.81909 29113 ft 441 kts 268°
2026-04-24 13:23 61.30030 -152.88262 29503 ft 441 kts 268°
2026-04-24 13:23 61.30360 -152.94582 29911 ft 439 kts 268°
2026-04-24 13:23 61.30685 -153.00906 30152 ft 440 kts 268°
2026-04-24 13:24 61.31008 -153.07241 30434 ft 439 kts 268°
2026-04-24 13:24 61.31327 -153.13558 30715 ft 439 kts 268°
2026-04-24 13:24 61.31643 -153.19877 30926 ft 439 kts 268°
2026-04-24 13:24 61.31956 -153.26205 31191 ft 440 kts 268°
2026-04-24 13:25 61.32263 -153.32454 31404 ft 440 kts 268°
2026-04-24 13:25 61.32570 -153.38789 31661 ft 440 kts 268°
2026-04-24 13:25 61.32874 -153.45126 31924 ft 440 kts 268°
2026-04-24 13:25 61.33177 -153.51480 32136 ft 441 kts 268°
2026-04-24 13:26 61.33478 -153.57842 32356 ft 442 kts 268°
2026-04-24 13:26 61.33776 -153.64224 32620 ft 443 kts 268°
2026-04-24 13:26 61.34072 -153.70605 32891 ft 443 kts 268°
2026-04-24 13:26 61.34365 -153.76990 33120 ft 443 kts 268°
2026-04-24 13:27 61.34656 -153.83390 33342 ft 444 kts 268°
2026-04-24 13:27 61.34942 -153.89790 33535 ft 444 kts 268°
2026-04-24 13:27 61.35226 -153.96192 33736 ft 443 kts 268°
2026-04-24 13:27 61.35506 -154.02591 33933 ft 444 kts 268°
2026-04-24 13:28 61.35783 -154.09020 34099 ft 445 kts 268°
2026-04-24 13:28 61.36059 -154.15453 34269 ft 446 kts 268°
2026-04-24 13:28 61.36240 -154.19711 34396 ft 445 kts 268°
2026-04-24 13:28 61.36513 -154.26150 34556 ft 445 kts 268°
2026-04-24 13:29 61.36875 -154.34747 34793 ft 446 kts 268°
2026-04-24 13:29 61.37051 -154.39022 34906 ft 446 kts 268°
2026-04-24 13:29 61.37312 -154.45467 35066 ft 446 kts 268°
2026-04-24 13:29 61.37571 -154.51912 35216 ft 446 kts 268°
2026-04-24 13:30 61.37829 -154.58442 35355 ft 446 kts 268°
2026-04-24 13:30 61.38082 -154.64887 35524 ft 446 kts 268°
2026-04-24 13:30 61.38331 -154.71327 35670 ft 446 kts 268°
2026-04-24 13:30 61.38579 -154.77794 35800 ft 446 kts 268°
2026-04-24 13:31 61.39064 -154.90742 35906 ft 449 kts 268°
2026-04-24 13:31 61.39546 -155.03901 35923 ft 448 kts 268°
2026-04-24 13:32 61.40009 -155.16859 35912 ft 447 kts 268°
2026-04-24 13:32 61.40460 -155.29861 35906 ft 446 kts 268°
2026-04-24 13:33 61.40895 -155.42755 35908 ft 445 kts 268°
2026-04-24 13:33 61.41316 -155.55632 35909 ft 445 kts 268°
2026-04-24 13:34 61.41725 -155.68531 35906 ft 445 kts 268°
2026-04-24 13:34 61.42123 -155.81446 35915 ft 445 kts 268°
2026-04-24 13:35 61.42509 -155.94355 35915 ft 446 kts 268°
2026-04-24 13:35 61.42883 -156.07294 35918 ft 447 kts 268°
2026-04-24 13:36 61.43246 -156.20289 35915 ft 448 kts 268°
2026-04-24 13:36 61.43597 -156.33284 35916 ft 449 kts 268°
2026-04-24 13:37 61.43937 -156.46316 35913 ft 450 kts 267°
2026-04-24 13:37 61.44265 -156.59392 35914 ft 451 kts 267°
2026-04-24 13:38 61.44581 -156.72495 35919 ft 452 kts 267°
2026-04-24 13:38 61.44885 -156.85622 35921 ft 453 kts 267°
2026-04-24 13:39 61.45177 -156.98765 35926 ft 453 kts 267°
2026-04-24 13:39 61.45457 -157.11950 35927 ft 454 kts 267°
2026-04-24 13:40 61.45724 -157.25131 35925 ft 454 kts 267°
2026-04-24 13:40 61.45979 -157.38350 35919 ft 455 kts 267°
2026-04-24 13:41 61.46221 -157.51545 35910 ft 454 kts 267°
2026-04-24 13:41 61.46450 -157.64733 35908 ft 454 kts 267°
2026-04-24 13:42 61.46670 -157.78201 35905 ft 454 kts 267°
2026-04-24 13:42 61.46872 -157.91318 35908 ft 454 kts 267°
2026-04-24 13:43 61.47062 -158.04508 35904 ft 454 kts 266°
2026-04-24 13:43 61.47242 -158.17876 35907 ft 454 kts 266°
2026-04-24 13:44 61.47407 -158.31084 35898 ft 454 kts 266°
2026-04-24 13:44 61.47559 -158.44284 35898 ft 454 kts 266°
2026-04-24 13:45 61.47698 -158.57493 35885 ft 454 kts 266°
2026-04-24 13:45 61.47824 -158.70703 35892 ft 454 kts 266°
2026-04-24 13:46 61.47938 -158.83938 35888 ft 454 kts 266°
2026-04-24 13:46 61.48041 -158.97517 35887 ft 455 kts 266°
2026-04-24 13:47 61.48129 -159.10674 35880 ft 455 kts 266°
2026-04-24 13:47 61.48204 -159.23926 35878 ft 455 kts 266°
2026-04-24 13:48 61.48267 -159.37171 35872 ft 455 kts 266°
2026-04-24 13:48 61.48309 -159.48279 35870 ft 455 kts 266°
2026-04-24 13:49 61.48348 -159.61527 35875 ft 456 kts 266°
2026-04-24 13:49 61.48373 -159.74699 35872 ft 456 kts 266°
2026-04-24 13:50 61.48387 -159.88067 35874 ft 456 kts 266°
2026-04-24 13:50 61.48387 -160.01334 35865 ft 456 kts 266°
2026-04-24 13:51 61.48374 -160.14605 35865 ft 456 kts 266°
2026-04-24 13:51 61.48348 -160.27864 35860 ft 456 kts 266°
2026-04-24 13:52 61.48310 -160.41139 35859 ft 456 kts 265°
2026-04-24 13:52 61.48258 -160.54405 35862 ft 456 kts 265°
2026-04-24 13:53 61.48194 -160.67670 35862 ft 456 kts 265°
2026-04-24 13:53 61.48116 -160.81020 35859 ft 456 kts 265°
2026-04-24 13:54 61.48025 -160.94387 35855 ft 456 kts 265°
2026-04-24 13:54 61.47922 -161.07651 35847 ft 456 kts 265°
2026-04-24 13:55 61.47806 -161.20921 35848 ft 456 kts 265°
2026-04-24 13:55 61.47677 -161.34210 35845 ft 456 kts 265°
2026-04-24 13:56 61.47535 -161.47482 35851 ft 457 kts 265°
2026-04-24 13:56 61.47380 -161.60769 35854 ft 457 kts 265°
2026-04-24 13:57 61.47212 -161.74057 35861 ft 457 kts 265°
2026-04-24 13:57 61.47028 -161.87529 35863 ft 457 kts 265°
2026-04-24 13:58 61.46833 -162.00845 35865 ft 458 kts 265°
2026-04-24 13:58 61.46626 -162.14155 35862 ft 458 kts 265°
2026-04-24 13:59 61.46406 -162.27465 35861 ft 458 kts 265°
2026-04-24 13:59 61.46170 -162.40890 35854 ft 458 kts 264°
2026-04-24 14:00 61.45923 -162.54206 35848 ft 458 kts 264°
2026-04-24 14:00 61.45664 -162.67527 35843 ft 459 kts 264°
2026-04-24 14:01 61.45391 -162.80843 35834 ft 459 kts 264°
2026-04-24 14:01 61.45107 -162.94077 35825 ft 459 kts 264°
2026-04-24 14:02 61.44808 -163.07407 35825 ft 459 kts 264°
2026-04-24 14:02 61.44496 -163.20735 35824 ft 459 kts 264°
2026-04-24 14:03 61.44171 -163.34051 35821 ft 459 kts 264°
2026-04-24 14:03 61.43832 -163.47386 35819 ft 459 kts 264°
2026-04-24 14:04 61.43481 -163.60707 35813 ft 459 kts 264°
2026-04-24 14:04 61.43117 -163.74009 35809 ft 459 kts 264°
2026-04-24 14:05 61.42740 -163.87348 35806 ft 459 kts 264°
2026-04-24 14:05 61.42350 -164.00650 35808 ft 459 kts 264°
2026-04-24 14:06 61.41946 -164.13958 35803 ft 459 kts 263°
2026-04-24 14:06 61.41528 -164.27346 35800 ft 459 kts 263°
2026-04-24 14:07 61.41098 -164.40658 35798 ft 459 kts 263°
2026-04-24 14:07 61.40656 -164.53958 35802 ft 459 kts 263°
2026-04-24 14:08 61.40200 -164.67260 35800 ft 459 kts 263°
2026-04-24 14:08 61.39732 -164.80564 35790 ft 459 kts 263°
2026-04-24 14:09 61.39250 -164.93873 35795 ft 459 kts 263°
2026-04-24 14:09 61.38750 -165.07304 35782 ft 459 kts 263°
2026-04-24 14:10 61.38243 -165.20591 35785 ft 459 kts 263°
2026-04-24 14:10 61.37723 -165.33863 35777 ft 459 kts 262°
2026-04-24 14:11 61.37189 -165.47134 35776 ft 459 kts 262°
2026-04-24 14:12 61.36365 -165.67036 35770 ft 459 kts 262°
2026-04-24 14:12 61.35803 -165.80226 35776 ft 459 kts 262°
2026-04-24 14:13 61.35224 -165.93499 35752 ft 459 kts 262°
2026-04-24 14:13 61.34633 -166.06740 35740 ft 459 kts 262°
2026-04-24 14:14 61.34028 -166.20000 35741 ft 459 kts 262°
2026-04-24 14:14 61.33204 -166.37631 35737 ft 460 kts 262°
2026-04-24 14:15 61.32461 -166.53101 35733 ft 460 kts 261°
2026-04-24 14:15 61.31922 -166.64113 35732 ft 460 kts 261°
2026-04-24 14:16 61.31261 -166.77361 35731 ft 460 kts 261°
2026-04-24 14:17 61.30246 -166.97207 35727 ft 460 kts 261°
2026-04-24 14:17 61.29201 -167.17055 35724 ft 460 kts 261°
2026-04-24 14:18 61.28487 -167.30300 35723 ft 460 kts 261°
2026-04-24 14:18 61.27761 -167.43527 35716 ft 461 kts 261°
2026-04-24 14:19 61.27027 -167.56671 35713 ft 461 kts 260°
2026-04-24 14:19 61.26275 -167.69889 35711 ft 461 kts 260°
2026-04-24 14:20 61.25504 -167.83204 35709 ft 461 kts 260°
2026-04-24 14:20 61.24726 -167.96423 35702 ft 461 kts 260°
2026-04-24 14:21 61.23939 -168.09572 35701 ft 461 kts 260°
2026-04-24 14:21 61.23134 -168.22791 35696 ft 462 kts 260°
2026-04-24 14:22 61.22316 -168.36006 35692 ft 462 kts 259°
2026-04-24 14:23 61.21065 -168.55834 35687 ft 462 kts 259°
2026-04-24 14:23 61.20215 -168.69034 35682 ft 462 kts 259°
2026-04-24 14:24 61.19353 -168.82242 35682 ft 462 kts 259°
2026-04-24 14:24 61.18476 -168.95438 35678 ft 462 kts 259°
2026-04-24 14:25 61.17501 -169.08585 35674 ft 461 kts 258°
2026-04-24 14:25 61.16477 -169.21706 35668 ft 461 kts 258°
2026-04-24 14:26 61.15452 -169.34742 35666 ft 461 kts 258°
2026-04-24 14:26 61.14419 -169.47845 35664 ft 461 kts 257°
2026-04-24 14:27 61.13376 -169.60959 35660 ft 461 kts 257°
2026-04-24 14:27 61.12321 -169.74061 35657 ft 461 kts 257°
2026-04-24 14:28 61.11253 -169.87150 35654 ft 461 kts 257°
2026-04-24 14:28 61.10174 -170.00206 35650 ft 461 kts 257°
2026-04-24 14:29 61.09081 -170.13272 35646 ft 461 kts 257°
2026-04-24 14:29 61.07977 -170.26314 35643 ft 461 kts 257°
2026-04-24 14:30 61.07050 -170.37138 35641 ft 461 kts 257°
2026-04-24 14:30 61.05732 -170.52353 35633 ft 460 kts 257°
2026-04-24 14:31 61.04592 -170.65346 35630 ft 460 kts 257°
2026-04-24 14:31 61.03447 -170.78248 35627 ft 460 kts 256°
2026-04-24 14:32 61.02283 -170.91211 35625 ft 459 kts 256°
2026-04-24 14:32 61.01108 -171.04157 35622 ft 459 kts 256°
2026-04-24 14:33 60.99920 -171.17085 35617 ft 459 kts 256°
2026-04-24 14:33 60.98721 -171.30004 35619 ft 459 kts 256°
2026-04-24 14:34 60.97511 -171.42893 35609 ft 458 kts 256°
2026-04-24 14:34 60.96288 -171.55775 35601 ft 458 kts 256°
2026-04-24 14:35 60.95053 -171.68650 35599 ft 458 kts 256°
2026-04-24 14:35 60.93807 -171.81495 35599 ft 458 kts 256°
2026-04-24 14:36 60.92549 -171.94333 35594 ft 458 kts 256°
2026-04-24 14:36 60.91280 -172.07146 35599 ft 457 kts 256°
2026-04-24 14:37 60.89999 -172.19956 35595 ft 457 kts 255°
2026-04-24 14:37 60.88706 -172.32739 35590 ft 457 kts 255°
2026-04-24 14:38 60.87403 -172.45506 35586 ft 457 kts 255°
2026-04-24 14:38 60.86087 -172.58260 35585 ft 457 kts 255°
2026-04-24 14:39 60.84760 -172.70999 35585 ft 457 kts 255°
2026-04-24 14:39 60.83420 -172.83732 35577 ft 456 kts 255°
2026-04-24 14:40 60.82078 -172.96364 35580 ft 456 kts 255°
2026-04-24 14:40 60.80716 -173.09068 35575 ft 456 kts 255°
2026-04-24 14:41 60.79338 -173.21787 35570 ft 456 kts 255°
2026-04-24 14:41 60.77953 -173.34453 35572 ft 456 kts 255°
2026-04-24 14:42 60.76791 -173.44987 35575 ft 456 kts 255°
2026-04-24 14:42 60.75145 -173.59768 35570 ft 456 kts 255°
2026-04-24 14:43 60.73722 -173.72428 35566 ft 456 kts 255°
2026-04-24 14:43 60.72288 -173.85058 35570 ft 457 kts 254°
2026-04-24 14:44 60.70841 -173.97695 35560 ft 457 kts 254°
2026-04-24 14:44 60.69383 -174.10307 35564 ft 457 kts 254°
2026-04-24 14:45 60.67913 -174.22911 35568 ft 457 kts 254°
2026-04-24 14:45 60.66429 -174.35515 35561 ft 457 kts 254°
2026-04-24 14:46 60.64944 -174.48023 35559 ft 457 kts 254°
2026-04-24 14:46 60.63438 -174.60599 35560 ft 457 kts 253°
2026-04-24 14:47 60.62168 -174.71115 35555 ft 457 kts 253°
2026-04-24 14:47 60.60391 -174.85710 35559 ft 457 kts 253°
2026-04-24 14:48 60.58851 -174.98238 35558 ft 457 kts 253°
2026-04-24 14:48 60.57298 -175.10766 35560 ft 456 kts 253°
2026-04-24 14:49 60.55731 -175.23295 35558 ft 456 kts 253°
2026-04-24 14:49 60.54155 -175.35795 35555 ft 457 kts 253°
2026-04-24 14:50 60.52566 -175.48288 35554 ft 457 kts 253°
2026-04-24 14:50 60.50967 -175.60765 35553 ft 457 kts 253°
2026-04-24 14:51 60.49356 -175.73223 35554 ft 457 kts 253°
2026-04-24 14:51 60.47732 -175.85684 35555 ft 457 kts 253°
2026-04-24 14:52 60.46097 -175.98132 35556 ft 457 kts 253°
2026-04-24 14:52 60.44450 -176.10564 35555 ft 457 kts 253°
2026-04-24 14:53 60.42791 -176.22990 35556 ft 457 kts 252°
2026-04-24 14:53 60.41119 -176.35413 35561 ft 457 kts 252°
2026-04-24 14:54 60.39448 -176.47728 35561 ft 457 kts 252°
2026-04-24 14:54 60.37754 -176.60119 35564 ft 457 kts 252°
2026-04-24 14:55 60.36326 -176.70491 35567 ft 457 kts 252°
2026-04-24 14:55 60.34332 -176.84860 35563 ft 457 kts 252°
2026-04-24 14:56 60.32602 -176.97219 35568 ft 457 kts 252°
2026-04-24 14:56 60.30861 -177.09570 35572 ft 457 kts 252°
2026-04-24 14:57 60.29108 -177.21907 35578 ft 458 kts 252°
2026-04-24 14:57 60.27343 -177.34230 35576 ft 458 kts 252°
2026-04-24 14:58 60.25567 -177.46546 35579 ft 458 kts 252°
2026-04-24 14:58 60.23782 -177.58833 35583 ft 458 kts 251°
2026-04-24 14:59 60.21980 -177.71142 35586 ft 458 kts 251°
2026-04-24 14:59 60.20481 -177.81328 35590 ft 458 kts 251°
2026-04-24 15:00 60.18354 -177.95579 35595 ft 458 kts 251°
2026-04-24 15:00 60.16471 -178.07797 35594 ft 458 kts 250°
2026-04-24 15:01 60.14575 -178.19990 35597 ft 458 kts 250°
2026-04-24 15:01 60.12995 -178.30118 35601 ft 458 kts 250°
2026-04-24 15:02 60.11073 -178.42370 35607 ft 458 kts 250°
2026-04-24 15:02 60.09167 -178.54451 35601 ft 458 kts 250°
2026-04-24 15:03 60.07238 -178.66589 35613 ft 457 kts 250°
2026-04-24 15:03 60.05296 -178.78726 35620 ft 458 kts 250°
2026-04-24 15:04 60.03342 -178.90856 35621 ft 458 kts 250°
2026-04-24 15:04 60.01380 -179.02952 35620 ft 458 kts 250°
2026-04-24 15:05 59.99403 -179.15057 35624 ft 458 kts 249°
2026-04-24 15:05 59.97417 -179.27134 35627 ft 458 kts 249°
2026-04-24 15:06 59.95417 -179.39215 35635 ft 458 kts 249°
2026-04-24 15:06 59.93406 -179.51283 35638 ft 458 kts 249°
2026-04-24 15:07 59.91387 -179.63324 35640 ft 458 kts 249°
2026-04-24 15:07 59.89353 -179.75361 35645 ft 458 kts 249°
2026-04-24 15:08 59.87307 -179.87386 35646 ft 458 kts 249°
2026-04-24 15:08 59.85255 -179.99390 35651 ft 458 kts 249°
2026-04-24 15:09 59.83201 179.88680 35650 ft 458 kts 249°
2026-04-24 15:09 59.81126 179.76713 35660 ft 458 kts 249°
2026-04-24 15:10 59.79038 179.64751 35659 ft 458 kts 248°
2026-04-24 15:10 59.76942 179.52798 35667 ft 458 kts 248°
2026-04-24 15:11 59.74832 179.40860 35664 ft 459 kts 249°
2026-04-24 15:11 59.72698 179.28932 35671 ft 459 kts 248°
2026-04-24 15:12 59.70550 179.17019 35671 ft 459 kts 248°
2026-04-24 15:12 59.67307 178.99164 35677 ft 460 kts 248°
2026-04-24 15:13 59.65130 178.87268 35678 ft 460 kts 248°
2026-04-24 15:13 59.62939 178.75376 35679 ft 460 kts 248°
2026-04-24 15:14 59.60739 178.63493 35680 ft 461 kts 248°
2026-04-24 15:14 59.58528 178.51614 35686 ft 461 kts 248°
2026-04-24 15:15 59.56302 178.39736 35685 ft 462 kts 248°
2026-04-24 15:15 59.54063 178.27873 35689 ft 462 kts 247°
2026-04-24 15:16 59.51814 178.16021 35692 ft 462 kts 247°
2026-04-24 15:16 59.49555 178.04188 35693 ft 462 kts 247°
2026-04-24 15:17 59.47281 177.92349 35695 ft 462 kts 247°
2026-04-24 15:17 59.44998 177.80534 35700 ft 462 kts 247°
2026-04-24 15:18 59.42720 177.68819 35705 ft 462 kts 247°
2026-04-24 15:18 59.40412 177.57023 35707 ft 462 kts 246°
2026-04-24 15:19 59.38092 177.45241 35711 ft 462 kts 247°
2026-04-24 15:19 59.35765 177.33480 35716 ft 462 kts 246°
2026-04-24 15:20 59.33430 177.21742 35721 ft 463 kts 246°
2026-04-24 15:20 59.31079 177.09998 35722 ft 463 kts 246°
2026-04-24 15:21 59.28719 176.98282 35724 ft 463 kts 246°
2026-04-24 15:21 59.26344 176.86570 35733 ft 463 kts 246°
2026-04-24 15:22 59.23960 176.74869 35724 ft 463 kts 246°
2026-04-24 15:23 59.20376 176.57411 35732 ft 464 kts 246°
2026-04-24 15:23 59.16753 176.39914 35736 ft 464 kts 246°
2026-04-24 15:25 59.11070 176.12761 35742 ft 464 kts 245°
2026-04-24 15:26 59.04491 175.81785 35756 ft 465 kts 245°
2026-04-24 15:27 58.97004 175.47075 35764 ft 465 kts 245°
2026-04-24 15:29 58.89413 175.12471 35769 ft 465 kts 245°
2026-04-24 15:31 58.80452 174.72351 35782 ft 466 kts 245°
2026-04-24 15:33 58.70038 174.26645 35793 ft 466 kts 244°
2026-04-24 15:34 58.63442 173.98195 35801 ft 466 kts 244°
2026-04-24 15:35 58.56773 173.69816 35808 ft 467 kts 244°
2026-04-24 15:36 58.54091 173.58503 35810 ft 467 kts 244°
2026-04-24 15:36 58.50048 173.41570 35812 ft 467 kts 244°
2026-04-24 15:37 58.47357 173.30366 35815 ft 467 kts 244°
2026-04-24 15:37 58.44639 173.19116 35818 ft 466 kts 244°
2026-04-24 15:38 58.41911 173.07876 35816 ft 466 kts 244°
2026-04-24 15:38 58.39174 172.96657 35821 ft 466 kts 244°
2026-04-24 15:39 58.36428 172.85462 35823 ft 466 kts 244°
2026-04-24 15:39 58.33674 172.74291 35823 ft 466 kts 244°
2026-04-24 15:40 58.30912 172.63140 35820 ft 466 kts 244°
2026-04-24 15:40 58.28138 172.52002 35825 ft 466 kts 244°
2026-04-24 15:41 58.25357 172.40889 35822 ft 466 kts 244°
2026-04-24 15:41 58.22564 172.29787 35827 ft 466 kts 244°
2026-04-24 15:42 58.19765 172.18714 35824 ft 466 kts 243°
2026-04-24 15:42 58.16954 172.07650 35827 ft 466 kts 243°
2026-04-24 15:43 58.14134 171.96608 35827 ft 466 kts 243°
2026-04-24 15:43 58.11304 171.85576 35826 ft 466 kts 243°
2026-04-24 15:44 58.08466 171.74573 35824 ft 466 kts 243°
2026-04-24 15:44 58.05619 171.63585 35826 ft 466 kts 243°
2026-04-24 15:45 58.02762 171.52615 35826 ft 466 kts 243°
2026-04-24 15:45 57.99893 171.41654 35819 ft 466 kts 243°
2026-04-24 15:46 57.97504 171.32566 35832 ft 466 kts 243°
2026-04-24 15:46 57.94620 171.21641 35831 ft 466 kts 243°
2026-04-24 15:47 57.91723 171.10722 35836 ft 466 kts 243°
2026-04-24 15:47 57.88348 170.98069 35841 ft 466 kts 243°
2026-04-24 15:48 57.85901 170.88941 35834 ft 466 kts 243°
2026-04-24 15:48 57.82998 170.78156 35826 ft 466 kts 243°
2026-04-24 15:49 57.80066 170.67316 35840 ft 466 kts 243°
2026-04-24 15:49 57.77122 170.56484 35851 ft 466 kts 243°
2026-04-24 15:50 57.74167 170.45660 35833 ft 466 kts 242°
2026-04-24 15:50 57.71185 170.34793 35836 ft 467 kts 242°
2026-04-24 15:51 57.68213 170.24012 35844 ft 466 kts 242°
2026-04-24 15:51 57.65251 170.13319 35847 ft 466 kts 242°
2026-04-24 15:52 57.62260 170.02570 35835 ft 466 kts 242°
2026-04-24 15:52 57.59263 169.91850 35836 ft 466 kts 242°
2026-04-24 15:53 57.56255 169.81142 35847 ft 466 kts 242°
2026-04-24 15:53 57.53239 169.70455 35844 ft 466 kts 242°
2026-04-24 15:54 57.50217 169.59794 35830 ft 466 kts 242°
2026-04-24 15:54 57.47184 169.49145 35833 ft 466 kts 242°
2026-04-24 15:55 57.44148 169.38537 35843 ft 465 kts 242°
2026-04-24 15:55 57.41103 169.27942 35834 ft 465 kts 242°
2026-04-24 15:56 57.38048 169.17364 35829 ft 465 kts 242°
2026-04-24 15:56 57.34985 169.06807 35838 ft 465 kts 242°
2026-04-24 15:57 57.31918 168.96283 35839 ft 465 kts 242°
2026-04-24 15:57 57.28859 168.85832 35826 ft 465 kts 242°
2026-04-24 15:58 57.25771 168.75330 35828 ft 465 kts 242°
2026-04-24 15:58 57.22671 168.64838 35841 ft 465 kts 241°
2026-04-24 15:59 57.19567 168.54377 35837 ft 465 kts 241°
2026-04-24 15:59 57.16453 168.43927 35824 ft 465 kts 241°
2026-04-24 16:00 57.13324 168.33477 35827 ft 465 kts 241°
2026-04-24 16:00 57.10190 168.23056 35837 ft 465 kts 241°
2026-04-24 16:01 57.07045 168.12642 35833 ft 465 kts 241°
2026-04-24 16:01 57.03893 168.02252 35832 ft 466 kts 241°
2026-04-24 16:02 57.00733 167.91883 35844 ft 466 kts 241°
2026-04-24 16:02 56.97561 167.81521 35841 ft 465 kts 241°
2026-04-24 16:03 56.94384 167.71186 35841 ft 465 kts 241°
2026-04-24 16:03 56.91197 167.60862 35841 ft 465 kts 241°
2026-04-24 16:04 56.88003 167.50564 35845 ft 465 kts 241°
2026-04-24 16:04 56.84804 167.40288 35835 ft 465 kts 241°
2026-04-24 16:05 56.79986 167.24893 35853 ft 465 kts 240°
2026-04-24 16:06 56.75197 167.09592 35856 ft 465 kts 241°
2026-04-24 16:07 56.70390 166.94260 35858 ft 465 kts 241°
2026-04-24 16:07 56.65557 166.78959 35862 ft 465 kts 240°
2026-04-24 16:08 56.60707 166.63706 35859 ft 465 kts 240°
2026-04-24 16:09 56.55836 166.48484 35865 ft 465 kts 240°
2026-04-24 16:09 56.52576 166.38353 35864 ft 465 kts 240°
2026-04-24 16:11 56.44396 166.13112 35866 ft 465 kts 240°
2026-04-24 16:11 56.41106 166.03038 35863 ft 465 kts 240°
2026-04-24 16:12 56.36157 165.87960 35865 ft 465 kts 240°
2026-04-24 16:13 56.31185 165.72908 35870 ft 465 kts 240°
2026-04-24 16:14 56.24552 165.52972 35875 ft 465 kts 240°
2026-04-24 16:14 56.19541 165.38019 35878 ft 465 kts 240°
2026-04-24 16:15 56.14514 165.23110 35880 ft 465 kts 240°
2026-04-24 16:16 56.09473 165.08253 35880 ft 465 kts 240°
2026-04-24 16:17 56.01040 164.83588 35886 ft 465 kts 239°
2026-04-24 16:18 55.94252 164.63945 35887 ft 464 kts 240°
2026-04-24 16:19 55.89142 164.49263 35889 ft 464 kts 239°
2026-04-24 16:20 55.84022 164.34626 35891 ft 464 kts 239°
2026-04-24 16:20 55.78879 164.20021 35893 ft 464 kts 239°
2026-04-24 16:21 55.73719 164.05455 35896 ft 464 kts 239°
2026-04-24 16:22 55.70269 163.95763 35896 ft 464 kts 240°
2026-04-24 16:22 55.65104 163.81315 35902 ft 464 kts 239°
2026-04-24 16:23 55.61642 163.71677 35902 ft 464 kts 239°
2026-04-24 16:24 55.56432 163.57252 35900 ft 464 kts 239°
2026-04-24 16:24 55.52947 163.47653 35900 ft 464 kts 239°
2026-04-24 16:25 55.49461 163.38085 35900 ft 464 kts 239°
2026-04-24 16:25 55.45959 163.28512 35903 ft 464 kts 239°
2026-04-24 16:26 55.40702 163.14208 35877 ft 464 kts 238°
2026-04-24 16:27 55.35437 162.99961 35898 ft 463 kts 238°
2026-04-24 16:27 55.31952 162.90461 35898 ft 462 kts 240°
2026-04-24 16:28 55.28689 162.80744 35898 ft 462 kts 241°
2026-04-24 16:28 55.24404 162.67781 35911 ft 462 kts 241°
2026-04-24 16:29 55.21096 162.57943 35901 ft 462 kts 241°
2026-04-24 16:30 55.14520 162.38625 35902 ft 462 kts 240°
2026-04-24 16:30 55.11242 162.29053 35909 ft 462 kts 240°
2026-04-24 16:31 55.07935 162.19430 35910 ft 462 kts 240°
2026-04-24 16:31 55.04624 162.09833 35906 ft 462 kts 240°
2026-04-24 16:32 55.01306 162.00255 35890 ft 462 kts 240°
2026-04-24 16:32 54.97974 161.90672 35903 ft 462 kts 240°
2026-04-24 16:33 54.94642 161.81127 35905 ft 462 kts 240°
2026-04-24 16:33 54.91296 161.71581 35904 ft 462 kts 240°
2026-04-24 16:34 54.87944 161.62050 35904 ft 462 kts 240°
2026-04-24 16:34 54.84586 161.52539 35900 ft 462 kts 240°
2026-04-24 16:35 54.81226 161.43057 35895 ft 461 kts 240°
2026-04-24 16:35 54.77844 161.33585 35899 ft 461 kts 240°
2026-04-24 16:36 54.74457 161.24153 35897 ft 461 kts 239°
2026-04-24 16:36 54.71068 161.14742 35892 ft 461 kts 239°
2026-04-24 16:37 54.67679 161.05361 35888 ft 460 kts 239°
2026-04-24 16:37 54.64278 160.95982 35891 ft 460 kts 239°
2026-04-24 16:38 54.60896 160.86689 35884 ft 460 kts 239°
2026-04-24 16:38 54.57483 160.77346 35883 ft 460 kts 239°
2026-04-24 16:39 54.54065 160.68025 35886 ft 460 kts 239°
2026-04-24 16:39 54.50638 160.58717 35880 ft 460 kts 239°
2026-04-24 16:40 54.47209 160.49436 35879 ft 460 kts 239°
2026-04-24 16:40 54.43765 160.40151 35877 ft 460 kts 239°
2026-04-24 16:41 54.40318 160.30890 35879 ft 460 kts 239°
2026-04-24 16:41 54.36861 160.21640 35879 ft 460 kts 239°
2026-04-24 16:42 54.33399 160.12409 35877 ft 460 kts 239°
2026-04-24 16:42 54.29930 160.03191 35878 ft 460 kts 239°
2026-04-24 16:43 54.26447 159.93969 35452 ft 467 kts 239°
2026-04-24 16:43 54.24683 159.89310 34895 ft 466 kts 239°
2026-04-24 16:43 54.22914 159.84647 34265 ft 467 kts 239°
2026-04-24 16:44 54.21144 159.79992 33534 ft 468 kts 239°
2026-04-24 16:44 54.19393 159.75353 33045 ft 463 kts 239°
2026-04-24 16:44 54.17660 159.70733 32544 ft 458 kts 239°
2026-04-24 16:44 54.15954 159.66174 32056 ft 454 kts 239°
2026-04-24 16:45 54.14263 159.61659 31588 ft 449 kts 239°
2026-04-24 16:45 54.12586 159.57192 31131 ft 445 kts 239°
2026-04-24 16:45 54.10921 159.52767 30675 ft 442 kts 239°
2026-04-24 16:45 54.09266 159.48380 30227 ft 438 kts 239°
2026-04-24 16:46 54.07619 159.44025 29745 ft 435 kts 239°
2026-04-24 16:46 54.05991 159.39729 29205 ft 431 kts 240°
2026-04-24 16:46 54.04397 159.35530 28754 ft 425 kts 240°
2026-04-24 16:46 54.02779 159.31276 28292 ft 420 kts 240°
2026-04-24 16:47 54.01218 159.27177 27848 ft 416 kts 240°
2026-04-24 16:47 53.99653 159.23074 27409 ft 412 kts 240°
2026-04-24 16:47 53.98103 159.19018 26962 ft 408 kts 240°
2026-04-24 16:47 53.96566 159.14999 26532 ft 404 kts 240°
2026-04-24 16:48 53.95038 159.11012 26094 ft 401 kts 240°
2026-04-24 16:48 53.93524 159.07067 25669 ft 397 kts 240°
2026-04-24 16:48 53.92020 159.03156 25245 ft 395 kts 240°
2026-04-24 16:48 53.90523 158.99267 24835 ft 392 kts 240°
2026-04-24 16:49 53.89039 158.95416 24422 ft 389 kts 240°
2026-04-24 16:49 53.87560 158.91585 24017 ft 387 kts 241°
2026-04-24 16:49 53.86091 158.87787 23603 ft 385 kts 241°
2026-04-24 16:49 53.84623 158.83992 23135 ft 383 kts 241°
2026-04-24 16:50 53.83656 158.81498 22835 ft 382 kts 241°
2026-04-24 16:50 53.81710 158.76491 22273 ft 378 kts 241°
2026-04-24 16:50 53.80270 158.72802 21832 ft 375 kts 241°
2026-04-24 16:50 53.78832 158.69132 21445 ft 371 kts 241°
2026-04-24 16:51 53.77409 158.65503 21040 ft 368 kts 241°
2026-04-24 16:51 53.75999 158.61910 20658 ft 365 kts 241°
2026-04-24 16:51 53.74599 158.58348 20276 ft 363 kts 241°
2026-04-24 16:51 53.73196 158.54816 19867 ft 361 kts 238°
2026-04-24 16:52 53.71372 158.51878 19472 ft 367 kts 214°
2026-04-24 16:52 53.69000 158.50291 19100 ft 369 kts 191°
2026-04-24 16:52 53.66454 158.50207 18715 ft 366 kts 169°
2026-04-24 16:52 53.63968 158.51054 18362 ft 364 kts 166°
2026-04-24 16:53 53.61539 158.51994 17951 ft 363 kts 166°
2026-04-24 16:53 53.59085 158.52965 17521 ft 361 kts 166°
2026-04-24 16:53 53.56657 158.53916 17159 ft 357 kts 166°
2026-04-24 16:53 53.54240 158.54847 16754 ft 355 kts 166°
2026-04-24 16:54 53.51843 158.55757 16396 ft 351 kts 167°
2026-04-24 16:54 53.49436 158.56660 16039 ft 348 kts 167°
2026-04-24 16:54 53.47077 158.57539 15657 ft 346 kts 167°
2026-04-24 16:54 53.44734 158.58408 15304 ft 343 kts 167°
2026-04-24 16:55 53.42410 158.59268 14916 ft 341 kts 167°
2026-04-24 16:55 53.40096 158.60123 14565 ft 339 kts 167°
2026-04-24 16:55 53.37808 158.60967 14215 ft 336 kts 167°
2026-04-24 16:55 53.35531 158.61806 13856 ft 333 kts 167°
2026-04-24 16:56 53.33304 158.62626 13487 ft 331 kts 167°
2026-04-24 16:56 53.31064 158.63449 13115 ft 327 kts 168°
2026-04-24 16:56 53.28853 158.64261 12767 ft 323 kts 168°
2026-04-24 16:56 53.26671 158.65062 12418 ft 319 kts 168°
2026-04-24 16:57 53.24514 158.65853 12062 ft 316 kts 168°
2026-04-24 16:57 53.22376 158.66636 11714 ft 313 kts 168°
2026-04-24 16:57 53.20262 158.67409 11360 ft 310 kts 168°
2026-04-24 16:57 53.18158 158.68178 11031 ft 307 kts 168°
2026-04-24 16:58 53.16115 158.68924 10916 ft 296 kts 168°
2026-04-24 16:58 53.14131 158.69665 10715 ft 289 kts 165°
2026-04-24 16:58 53.12228 158.70781 10327 ft 290 kts 158°
2026-04-24 16:58 53.10375 158.72105 9898 ft 288 kts 156°
2026-04-24 16:59 53.08574 158.73415 9753 ft 272 kts 156°
2026-04-24 16:59 53.06861 158.74636 9187 ft 272 kts 156°
2026-04-24 16:59 53.03413 158.77020 8303 ft 264 kts 156°
2026-04-24 17:00 53.01738 158.78163 8008 ft 256 kts 156°
2026-04-24 17:00 52.98368 158.79741 7344 ft 258 kts 184°
2026-04-24 17:00 52.96668 158.78817 6895 ft 263 kts 212°
2026-04-24 17:01 52.94631 158.73771 5890 ft 272 kts 248°
2026-04-24 17:01 52.93955 158.70835 5337 ft 273 kts 248°
2026-04-24 17:02 52.92892 158.65912 4442 ft 273 kts 260°
2026-04-24 17:02 52.93409 158.61958 3936 ft 261 kts 309°
2026-04-24 17:02 52.94789 158.60220 3652 ft 245 kts 342°
2026-04-24 17:02 52.96363 158.59308 3416 ft 235 kts 342°
2026-04-24 17:03 52.99297 158.57328 2955 ft 220 kts 340°
2026-04-24 17:03 53.00698 158.56351 2750 ft 217 kts 340°
2026-04-24 17:03 53.02046 158.55412 2558 ft 208 kts 340°
2026-04-24 17:04 53.03338 158.54512 2352 ft 196 kts 340°
2026-04-24 17:04 53.05707 158.52865 1952 ft 174 kts 340°
2026-04-24 17:04 53.06831 158.52086 1887 ft 176 kts 340°
2026-04-24 17:05 53.07951 158.51308 1666 ft 170 kts 340°
2026-04-24 17:05 53.08986 158.50586 1458 ft 153 kts 340°
2026-04-24 17:05 53.10866 158.49281 1056 ft 144 kts 338°
2026-04-24 17:06 53.11793 158.48637 885 ft 145 kts 338°
2026-04-24 17:06 53.13654 158.47344 536 ft 145 kts 338°
2026-04-24 17:06 53.14589 158.46694 361 ft 145 kts 338°
2026-04-24 17:07 53.15205 158.46266 243 ft 145 kts 338°
2026-04-24 17:07 53.16437 158.45411 121 ft 138 kts 338°
2026-04-24 17:07 53.17484 158.44685 128 ft 36 kts 338°
2026-04-24 17:08 53.17567 158.44470 121 ft 12 kts 247°
2026-04-24 17:08 53.17530 158.44337 122 ft 13 kts 245°
2026-04-24 17:08 53.17499 158.44203 118 ft 12 kts 250°
2026-04-24 17:09 53.17430 158.43952 120 ft 12 kts 239°
2026-04-24 17:09 53.17350 158.43726 119 ft 11 kts 240°
2026-04-24 17:10 53.17325 158.43653 118 ft 11 kts 240°
2026-04-24 17:10 53.17175 158.43224 120 ft 18 kts 240°
2026-04-24 17:11 53.17084 158.42827 120 ft 7 kts 328°
2026-04-24 17:12 53.17128 158.42619 122 ft 0 kts 238°